| time (UTC) | temp F | wind direction | speed knots | gust knots | rain 1hr in | rain 24hr in | rain mn in | humidity % | barometer mb |
| 20260507015006 | 46 | 315 | 1.7 | 2.6 | 0.00 | 0.00 | 0.00 | 100 | 1019.1 |
| 20260507013006 | 47 | 305 | 2.6 | 4.3 | 0.00 | 0.00 | 0.00 | 100 | 1018.9 |
| 20260507011005 | 48 | 324 | 2.6 | 4.3 | 0.00 | 0.00 | 0.00 | 100 | 1018.7 |
| 20260507010505 | 48 | 320 | 2.6 | 4.3 | 0.00 | 0.00 | 0.00 | 100 | 1018.7 |
| 20260507003006 | 51 | 302 | 9.6 | 13.9 | 0.00 | 0.00 | 0.00 | 100 | 1018.6 |
| 20260507002506 | 51 | 313 | 7.8 | 13.9 | 0.00 | 0.00 | 0.00 | 100 | 1018.7 |
| 20260507002005 | 52 | 303 | 10.4 | 13.9 | 0.00 | 0.00 | 0.00 | 100 | 1018.7 |
| 20260507001005 | 52 | 293 | 11.3 | 13.0 | 0.00 | 0.00 | 0.00 | 100 | 1018.7 |
| 20260507000505 | 52 | 305 | 12.2 | 15.6 | 0.00 | 0.00 | 0.00 | 100 | 1018.7 |
| 20260506235005 | 52 | 291 | 11.3 | 17.4 | 0.00 | 0.00 | 0.00 | 100 | 1018.8 |
| 20260506234505 | 52 | 283 | 11.3 | 18.2 | 0.00 | 0.00 | 0.00 | 100 | 1018.7 |
| 20260506232505 | 53 | 305 | 14.8 | 18.2 | 0.00 | 0.00 | 0.00 | 100 | 1018.6 |
| 20260506232006 | 53 | 312 | 13.0 | 17.4 | 0.00 | 0.00 | 0.00 | 100 | 1018.6 |
| 20260506231506 | 53 | 310 | 11.3 | 14.8 | 0.00 | 0.00 | 0.00 | 100 | 1018.6 |
| 20260506230505 | 52 | 299 | 13.0 | 15.6 | 0.00 | 0.00 | 0.00 | 100 | 1018.6 |
| 20260506225506 | 53 | 280 | 12.2 | 17.4 | 0.00 | 0.00 | 0.00 | 100 | 1018.8 |
| 20260506224505 | 53 | 293 | 13.0 | 17.4 | 0.00 | 0.00 | 0.00 | 100 | 1018.7 |
| 20260506224005 | 53 | 299 | 13.9 | 19.1 | 0.00 | 0.00 | 0.00 | 100 | 1018.7 |
| 20260506223505 | 53 | 296 | 16.5 | 21.7 | 0.00 | 0.00 | 0.00 | 100 | 1018.8 |
| 20260506223005 | 53 | 281 | 14.8 | 20.9 | 0.00 | 0.00 | 0.00 | 100 | 1018.7 |
| 20260506221505 | 54 | 279 | 10.4 | 15.6 | 0.00 | 0.00 | 0.00 | 100 | 1018.8 |
| 20260506214005 | 53 | 289 | 13.9 | 22.6 | 0.00 | 0.00 | 0.00 | 100 | 1018.8 |
| 20260506213505 | 53 | 287 | 11.3 | 17.4 | 0.00 | 0.00 | 0.00 | 100 | 1018.8 |
| 20260506213005 | 54 | 294 | 13.9 | 19.1 | 0.00 | 0.00 | 0.00 | 100 | 1018.8 |
| 20260506212005 | 54 | 289 | 9.6 | 13.0 | 0.00 | 0.00 | 0.00 | 100 | 1018.9 |
| 20260506211005 | 55 | 282 | 13.9 | 18.2 | 0.00 | 0.00 | 0.00 | 100 | 1019.1 |
| 20260506210505 | 53 | 291 | 15.6 | 20.0 | 0.00 | 0.00 | 0.00 | 100 | 1019.0 |
| 20260506210004 | 53 | 269 | 8.7 | 14.8 | 0.00 | 0.00 | 0.00 | 100 | 1018.9 |
| 20260506205005 | 52 | 279 | 11.3 | 19.1 | 0.00 | 0.00 | 0.00 | 100 | 1019.0 |
| 20260506203505 | 53 | 304 | 12.2 | 22.6 | 0.00 | 0.00 | 0.00 | 100 | 1019.3 |
| 20260506203005 | 52 | 296 | 11.3 | 20.0 | 0.00 | 0.00 | 0.00 | 100 | 1019.3 |
| 20260506202505 | 52 | 295 | 13.9 | 20.0 | 0.00 | 0.00 | 0.00 | 100 | 1019.2 |
| 20260506202005 | 52 | 306 | 12.2 | 22.6 | 0.00 | 0.00 | 0.00 | 100 | 1019.3 |
| 20260506201505 | 53 | 305 | 13.0 | 22.6 | 0.00 | 0.00 | 0.00 | 100 | 1019.4 |
| 20260506194505 | 54 | 290 | 15.6 | 20.0 | 0.00 | 0.00 | 0.00 | 100 | 1019.4 |
| 20260506194005 | 53 | 299 | 12.2 | 22.6 | 0.00 | 0.00 | 0.00 | 100 | 1019.3 |
| 20260506193005 | 53 | 293 | 13.9 | 19.1 | 0.00 | 0.00 | 0.00 | 100 | 1019.4 |
| 20260506191005 | 52 | 292 | 15.6 | 21.7 | 0.00 | 0.00 | 0.00 | 100 | 1019.4 |
| 20260506190505 | 52 | 290 | 16.5 | 22.6 | 0.00 | 0.00 | 0.00 | 100 | 1019.5 |
| 20260506190006 | 53 | 283 | 16.5 | 24.3 | 0.00 | 0.00 | 0.00 | 100 | 1019.6 |
| 20260506183505 | 54 | 318 | 13.0 | 21.7 | 0.00 | 0.00 | 0.00 | 100 | 1019.3 |
| 20260506181505 | 53 | 302 | 11.3 | 19.1 | 0.00 | 0.00 | 0.00 | 100 | 1019.3 |
| 20260506181005 | 53 | 287 | 13.0 | 21.7 | 0.00 | 0.00 | 0.00 | 100 | 1019.3 |
| 20260506180006 | 54 | 269 | 11.3 | 17.4 | 0.00 | 0.00 | 0.00 | 100 | 1019.4 |
| 20260506175504 | 53 | 286 | 17.4 | 22.6 | 0.00 | 0.00 | 0.00 | 100 | 1019.3 |
| 20260506175004 | 53 | 292 | 19.1 | 26.9 | 0.00 | 0.00 | 0.00 | 100 | 1019.4 |
| 20260506171505 | 53 | 305 | 15.6 | 22.6 | 0.00 | 0.00 | 0.00 | 100 | 1019.5 |
| 20260506170505 | 53 | 290 | 13.9 | 22.6 | 0.00 | 0.00 | 0.00 | 100 | 1019.6 |
| 20260506164005 | 52 | 294 | 17.4 | 24.3 | 0.00 | 0.00 | 0.00 | 100 | 1019.4 |
| 20260506162005 | 51 | 293 | 14.8 | 22.6 | 0.00 | 0.00 | 0.00 | 100 | 1019.4 |
| 20260506161505 | 52 | 310 | 18.2 | 24.3 | 0.00 | 0.00 | 0.00 | 100 | 1019.4 |
| 20260506160504 | 52 | 320 | 11.3 | 17.4 | 0.00 | 0.00 | 0.00 | 100 | 1019.4 |
| 20260506155505 | 52 | 299 | 18.2 | 21.7 | 0.00 | 0.00 | 0.00 | 100 | 1019.6 |
| 20260506155004 | 51 | 314 | 12.2 | 22.6 | 0.00 | 0.00 | 0.00 | 100 | 1019.6 |
| 20260506154004 | 50 | 290 | 17.4 | 21.7 | 0.00 | 0.00 | 0.00 | 100 | 1019.6 |
| 20260506152504 | 50 | 304 | 15.6 | 20.9 | 0.00 | 0.00 | 0.00 | 100 | 1019.6 |
| 20260506152004 | 51 | 279 | 15.6 | 22.6 | 0.00 | 0.00 | 0.00 | 100 | 1019.5 |
| 20260506151504 | 51 | 277 | 13.9 | 18.2 | 0.00 | 0.00 | 0.00 | 100 | 1019.4 |
| 20260506151005 | 50 | 281 | 11.3 | 17.4 | 0.00 | 0.00 | 0.00 | 100 | 1019.4 |
| 20260506150504 | 50 | 301 | 13.9 | 17.4 | 0.00 | 0.00 | 0.00 | 100 | 1019.5 |
| 20260506145004 | 49 | 307 | 13.0 | 18.2 | 0.00 | 0.00 | 0.00 | 100 | 1019.5 |
| 20260506143504 | 48 | 319 | 11.3 | 15.6 | 0.00 | 0.00 | 0.00 | 100 | 1019.4 |
| 20260506140504 | 47 | 302 | 9.6 | 13.9 | 0.00 | 0.00 | 0.00 | 100 | 1019.5 |
| 20260506140005 | 47 | 310 | 11.3 | 17.4 | 0.00 | 0.00 | 0.00 | 100 | 1019.5 |
| 20260506135505 | 47 | 307 | 7.8 | 15.6 | 0.00 | 0.00 | 0.00 | 100 | 1019.5 |
| 20260506135004 | 47 | 325 | 8.7 | 14.8 | 0.00 | 0.00 | 0.00 | 100 | 1019.5 |
| 20260506134004 | 46 | 301 | 10.4 | 13.0 | 0.00 | 0.00 | 0.00 | 100 | 1019.3 |
| 20260506132504 | 44 | 317 | 11.3 | 14.8 | 0.00 | 0.00 | 0.00 | 100 | 1019.2 |
| 20260506131504 | 44 | 307 | 6.1 | 10.4 | 0.00 | 0.00 | 0.00 | 100 | 1019.2 |
| 20260506131005 | 43 | 302 | 7.8 | 10.4 | 0.00 | 0.00 | 0.00 | 100 | 1019.1 |
| 20260506130504 | 43 | 300 | 8.7 | 12.2 | 0.00 | 0.00 | 0.00 | 100 | 1019.0 |
| 20260506125506 | 43 | 292 | 8.7 | 11.3 | 0.00 | 0.00 | 0.00 | 100 | 1018.9 |
| 20260506125004 | 43 | 303 | 7.0 | 10.4 | 0.00 | 0.00 | 0.00 | 100 | 1018.8 |
| 20260506124004 | 43 | 303 | 4.3 | 7.0 | 0.00 | 0.00 | 0.00 | 100 | 1018.7 |
| 20260506123504 | 42 | 297 | 5.2 | 8.7 | 0.00 | 0.00 | 0.00 | 100 | 1018.7 |
| 20260506122004 | 41 | 291 | 4.3 | 6.1 | 0.00 | 0.00 | 0.00 | 100 | 1018.5 |
| 20260506120005 | 39 | 303 | 5.2 | 7.8 | 0.00 | 0.00 | 0.00 | 100 | 1018.3 |
| 20260506115504 | 39 | 309 | 5.2 | 7.8 | 0.00 | 0.00 | 0.00 | 100 | 1018.3 |
| 20260506115004 | 39 | 314 | 6.1 | 8.7 | 0.00 | 0.00 | 0.00 | 100 | 1018.1 |
| 20260506114005 | 39 | 303 | 7.0 | 10.4 | 0.00 | 0.00 | 0.00 | 100 | 1017.7 |
| 20260506113004 | 39 | 310 | 6.1 | 8.7 | 0.00 | 0.00 | 0.00 | 100 | 1017.4 |
| 20260506112504 | 39 | 317 | 5.2 | 7.0 | 0.00 | 0.00 | 0.00 | 100 | 1017.4 |
| 20260506111004 | 38 | 317 | 5.2 | 7.0 | 0.00 | 0.00 | 0.00 | 100 | 1017.1 |
| 20260506104504 | 38 | 321 | 6.1 | 7.8 | 0.00 | 0.00 | 0.00 | 100 | 1017.1 |
| 20260506104004 | 37 | 318 | 4.3 | 6.1 | 0.00 | 0.00 | 0.00 | 100 | 1017.0 |
| 20260506102503 | 37 | 312 | 4.3 | 6.1 | 0.00 | 0.00 | 0.00 | 100 | 1016.9 |
| 20260506102004 | 37 | 314 | 4.3 | 7.0 | 0.00 | 0.00 | 0.00 | 100 | 1016.8 |
| 20260506095504 | 37 | 318 | 4.3 | 5.2 | 0.00 | 0.00 | 0.00 | 100 | 1016.7 |
| 20260506095004 | 37 | 311 | 4.3 | 4.3 | 0.00 | 0.00 | 0.00 | 100 | 1016.6 |
| 20260506094504 | 36 | 316 | 3.5 | 4.3 | 0.00 | 0.00 | 0.00 | 100 | 1016.8 |
| 20260506094004 | 37 | 319 | 2.6 | 4.3 | 0.00 | 0.00 | 0.00 | 100 | 1016.7 |
| 20260506093004 | 36 | 316 | 4.3 | 6.1 | 0.00 | 0.00 | 0.00 | 100 | 1016.5 |
| 20260506092004 | 37 | 316 | 4.3 | 7.0 | 0.00 | 0.00 | 0.00 | 100 | 1016.5 |
| 20260506091005 | 37 | 314 | 4.3 | 7.0 | 0.00 | 0.00 | 0.00 | 100 | 1016.3 |
| 20260506090504 | 37 | 319 | 5.2 | 7.8 | 0.00 | 0.00 | 0.00 | 100 | 1016.3 |
| 20260506085004 | 37 | 315 | 4.3 | 5.2 | 0.00 | 0.00 | 0.00 | 100 | 1016.3 |
| 20260506084004 | 37 | 329 | 2.6 | 4.3 | 0.00 | 0.00 | 0.00 | 100 | 1016.3 |
| 20260506083004 | 37 | 317 | 2.6 | 4.3 | 0.00 | 0.00 | 0.00 | 100 | 1016.5 |
| 20260506073004 | 37 | 299 | 2.6 | 2.6 | 0.00 | 0.00 | 0.00 | 100 | 1016.5 |
| 20260506072504 | 37 | 302 | 2.6 | 2.6 | 0.00 | 0.00 | 0.00 | 100 | 1016.2 |
| 20260506071004 | 37 | 355 | 1.7 | 1.7 | 0.00 | 0.00 | 0.00 | 100 | 1016.1 |
| 20260506061504 | 40 | 355 | 1.7 | 1.7 | 0.00 | 0.00 | 0.00 | 100 | 1015.7 |
| 20260506061004 | 40 | 355 | 0.9 | 0.9 | 0.00 | 0.00 | 0.00 | 100 | 1015.6 |
| 20260506051004 | 45 | 0 | 0.9 | 0.9 | 0.00 | 0.00 | 0.00 | 100 | 1015.2 |
| 20260506050504 | 45 | 0 | 0.9 | 1.7 | 0.00 | 0.00 | 0.00 | 100 | 1015.1 |
| 20260506042504 | 47 | 4 | 3.5 | 6.1 | 0.00 | 0.00 | 0.00 | 100 | 1014.8 |
| 20260506041504 | 47 | 357 | 3.5 | 4.3 | 0.00 | 0.00 | 0.00 | 100 | 1014.7 |
| 20260506040006 | 48 | 11 | 4.3 | 7.8 | 0.00 | 0.00 | 0.00 | 100 | 1014.6 |
| 20260506035005 | 48 | 355 | 4.3 | 8.7 | 0.00 | 0.00 | 0.00 | 100 | 1014.7 |
| 20260506033006 | 49 | 4 | 4.3 | 8.7 | 0.00 | 0.00 | 0.00 | 100 | 1014.7 |
| 20260506032506 | 49 | 356 | 5.2 | 10.4 | 0.00 | 0.00 | 0.00 | 100 | 1014.7 |
| 20260506032006 | 49 | 352 | 5.2 | 10.4 | 0.00 | 0.00 | 0.00 | 100 | 1014.6 |
| 20260506031506 | 49 | 350 | 6.1 | 8.7 | 0.00 | 0.00 | 0.00 | 100 | 1014.5 |
| 20260506030505 | 49 | 1 | 5.2 | 10.4 | 0.00 | 0.00 | 0.00 | 100 | 1014.4 |
| 20260506030005 | 50 | 352 | 5.2 | 8.7 | 0.00 | 0.00 | 0.00 | 100 | 1014.4 |
| 20260506025506 | 50 | 348 | 6.1 | 10.4 | 0.00 | 0.00 | 0.00 | 100 | 1014.4 |
| 20260506024505 | 50 | 350 | 8.7 | 11.3 | 0.00 | 0.00 | 0.00 | 100 | 1014.2 |
| 20260506023506 | 51 | 347 | 7.0 | 11.3 | 0.00 | 0.00 | 0.00 | 100 | 1013.9 |
| 20260506023006 | 51 | 352 | 7.0 | 11.3 | 0.00 | 0.00 | 0.00 | 100 | 1013.9 |
| 20260506022505 | 51 | 351 | 9.6 | 13.9 | 0.00 | 0.00 | 0.00 | 100 | 1013.7 |
| 20260506021506 | 51 | 349 | 7.8 | 13.0 | 0.00 | 0.00 | 0.00 | 100 | 1013.5 |
| 20260506021006 | 51 | 342 | 8.7 | 13.0 | 0.00 | 0.00 | 0.00 | 100 | 1013.5 |
| 20260506020506 | 52 | 349 | 7.8 | 10.4 | 0.00 | 0.00 | 0.00 | 100 | 1013.4 |